Regional Weather Roundup
Issued by NWS Midland/Odessa, TX

Skip options and go directly to product.
Home | Oldest Version | Previous Version | Current Version | All | Graphics & Text | Save Text | Print | Product List | Glossary On

Skip product version selection by date and time.   
468
ASUS44 KMAF 310110
RWRMAF
MIDLAND AREA WEATHER ROUNDUP
NATIONAL WEATHER SERVICE MIDLAND TX
800 PM CDT THU JUL 30 2015

...IN SOUTHWEST TEXAS AND SOUTHEAST NEW MEXICO...

CITY           SKY/WX    TMP DP  RH WIND       PRES   REMARKS
ALPINE         CLEAR     85  50  29 SE10      30.24R
ANDREWS        FAIR      92  54  28 SE9       30.12R
ARTESIA        PTSUNNY   93  54  26 E8        30.12S
BIG SPRING     CLEAR     92  55  28 E9        30.10S
CARLSBAD       SUNNY     95  52  23 SE10      30.08S
DRYDEN           N/A     96  49  20 S12G18    30.02F
FORT STOCKTON  CLEAR     93  49  22 SE16G23   30.08S
GUAD PASS      PTSUNNY   81  51  35 E13       30.28R
HOBBS          PTCLDY    90  54  29 E10       30.16R
MARFA          MOCLDY    84  52  32 E12G18    30.21F
MIDLAND AIRPK  CLEAR     95  51  22 E10G17    30.09S
MIDLAND INTL   PTCLDY    95  53  24 SE12      30.08S
ODESSA         CLEAR     95  50  21 SE12      30.10R
PECOS          CLEAR     96  51  21 E14       30.03S
PRESIDIO       FAIR      97  45  16 MISG      30.01S
SEMINOLE       CLEAR     91  50  24 E10       30.14S
SNYDER         CLEAR     93  61  33 E6        30.09S
WINK           PTCLDY    97  52  21 SE10      30.04S
$$
...OTHER STATIONS IN TEXAS...

CITY           SKY/WX    TMP DP  RH WIND       PRES   REMARKS
ABILENE        CLEAR     94  65  38 SE9       30.06R
AMARILLO       MOCLDY    82  66  58 SE7       30.21F
AUSTIN         MOCLDY    95  64  35 CALM      29.97S
BROWNSVILLE    PTCLDY    85  74  69 SE12      29.99R
CORPUS CHRISTI CLOUDY    90  70  51 SE13      29.98R
DALLAS FTW     PTCLDY    97  63  32 NE8       29.99R
DEL RIO        CLEAR     97  52  21 E7        29.97R
EL PASO        PTSUNNY   81  62  52 E12       30.15R
HOUSTON INT    CLOUDY    86  76  71 N3        29.98R
LUBBOCK        MOCLDY    79  69  71 N12       30.18R
SAN ANGELO     CLEAR     96  58  27 E9        30.03S
SAN ANTONIO    MOCLDY    94  65  38 SE10      30.00S
WACO           CLEAR     97  65  34 E6        29.98R
WICHITA FALLS  NOT AVBL
$$
...OTHER LOCATIONS IN NEW MEXICO...

CITY           SKY/WX    TMP DP  RH WIND       PRES   REMARKS
ALAMAGORDO     PTSUNNY   84  59  42 S3        30.19S
ALBUQUERQUE    CLOUDY    77  56  48 E15       30.29S
CANNON AFB     MOSUNNY   76  66  71 E9        30.26S
CLOVIS         CLOUDY    75  63  64 E6        30.27F
HOLLOMAN AFB   PTSUNNY   86  59  40 W6        30.16S
ROSWELL        PTSUNNY   92  55  28 SE6       30.13S
RUIDOSO          N/A    N/A N/A N/A MISG        N/A
SANTA FE       CLOUDY    70  58  65 S16       30.38R
TRUTH OR CONSE MOSUNNY   82  58  43 CALM      30.22R
TUCUMCARI      MOSUNNY   79  64  60 SE5       30.22F
$$

USA.gov is the U.S. government's official web portal to all federal, state and local government web resources and services.